GW6600 Weather Reports


time (UTC)temp
C
wind
direction
speed
KPH
gust
KPH
rain 1hr
cm
rain 24hr
cm
rain mn
cm
humidity
%
barometer
mb
20260505122149 13 133 0.0 0.0 0.00 0.00 0.00 77 1016.2
20260505121646 12 133 0.0 0.0 0.00 0.00 0.00 79 1016.3
20260505121143 12 133 0.0 0.0 0.00 0.00 0.00 81 1016.3
20260505120640 11 133 0.0 0.0 0.00 0.00 0.00 83 1016.2
20260505120136 11 133 0.0 0.0 0.00 0.00 0.00 84 1016.4
20260505115635 11 133 0.0 0.0 0.00 0.00 0.00 86 1016.3
20260505115133 10 133 0.0 0.0 0.00 0.00 0.00 86 1016.2
20260505114630 10 133 0.0 0.0 0.00 0.00 0.00 88 1016.2
20260505114126 10 133 0.0 0.0 0.00 0.00 0.00 88 1016.2
20260505113623 10 133 0.0 0.0 0.00 0.00 0.00 89 1016.0
20260505113119 10 133 0.0 0.0 0.00 0.00 0.00 89 1015.9
20260505112615 10 133 0.0 0.0 0.00 0.00 0.00 89 1016.0
20260505112114 10 133 0.0 0.0 0.00 0.00 0.00 90 1015.9
20260505111613 9 133 0.0 0.0 0.00 0.00 0.00 90 1015.7
20260505111109 9 133 0.0 0.0 0.00 0.00 0.00 90 1015.8
20260505110606 9 133 0.0 0.0 0.00 0.00 0.00 90 1015.7
20260505102039 10 135 0.0 0.0 0.00 0.00 0.00 87 1015.6
20260505101537 10 135 0.0 0.0 0.00 0.00 0.00 86 1015.6
20260505101033 10 135 0.0 0.0 0.00 0.00 0.00 85 1015.7
20260505100530 10 135 0.0 0.0 0.00 0.00 0.00 84 1015.6
20260505100027 10 135 0.0 0.0 0.00 0.00 0.00 83 1015.7
20260505095523 10 135 0.0 0.0 0.00 0.00 0.00 83 1015.7
20260505095019 10 136 1.6 1.6 0.00 0.00 0.00 84 1015.5
20260505094516 10 84 0.0 1.6 0.00 0.00 0.00 84 1015.7
20260505094012 10 84 0.0 0.0 0.00 0.00 0.00 85 1015.7
20260505093509 10 71 0.0 1.6 0.00 0.00 0.00 86 1015.6
20260505093007 10 143 0.0 0.0 0.00 0.00 0.00 86 1015.7
20260505092504 10 142 0.0 0.0 0.00 0.00 0.00 85 1015.8
20260505092001 10 143 0.0 0.0 0.00 0.00 0.00 85 1015.5
20260505091458 10 143 0.0 0.0 0.00 0.00 0.00 84 1015.6
20260505090956 10 143 0.0 0.0 0.00 0.00 0.00 83 1015.8
20260505090454 11 143 0.0 0.0 0.00 0.00 0.00 83 1015.5
20260505085951 11 143 0.0 0.0 0.00 0.00 0.00 82 1015.7
20260505085449 11 143 0.0 0.0 0.00 0.00 0.00 81 1015.4
20260505084947 11 143 0.0 0.0 0.00 0.00 0.00 81 1015.2
20260505084445 11 143 0.0 0.0 0.00 0.00 0.00 79 1015.4
20260505083943 11 143 0.0 0.0 0.00 0.00 0.00 78 1015.3
20260505083440 12 143 0.0 0.0 0.00 0.00 0.00 78 1015.3
20260505082936 12 143 0.0 0.0 0.00 0.00 0.00 76 1015.3
20260505082432 12 143 0.0 0.0 0.00 0.00 0.00 76 1015.2
20260505081929 12 143 0.0 0.0 0.00 0.00 0.00 74 1014.9
20260505081426 12 143 0.0 0.0 0.00 0.00 0.00 75 1015.0
20260505080922 13 143 0.0 0.0 0.00 0.00 0.00 74 1015.0
20260505080419 13 143 0.0 0.0 0.00 0.00 0.00 75 1014.9
20260505075914 13 143 0.0 0.0 0.00 0.00 0.00 74 1014.9
20260505075411 13 143 0.0 0.0 0.00 0.00 0.00 73 1014.7
20260505074909 13 143 0.0 0.0 0.00 0.00 0.00 73 1014.9
20260505074406 13 143 0.0 1.6 0.00 0.00 0.00 72 1014.8
20260505073903 14 143 0.0 1.6 0.00 0.00 0.00 71 1014.8
20260505073401 14 173 1.6 3.2 0.00 0.00 0.00 71 1014.8
20260505072858 13 140 0.0 1.6 0.00 0.00 0.00 71 1014.9
20260505072353 13 144 1.6 1.6 0.00 0.00 0.00 71 1014.7
20260505071850 13 152 1.6 1.6 0.00 0.00 0.00 72 1014.8
20260505071346 13 158 0.0 1.6 0.00 0.00 0.00 72 1014.9
20260505070845 13 133 0.0 1.6 0.00 0.00 0.00 74 1014.9
20260505070341 13 159 1.6 3.2 0.00 0.00 0.00 76 1015.1
20260505065836 12 135 0.0 1.6 0.00 0.00 0.00 78 1014.9
20260505065333 12 136 0.0 1.6 0.00 0.00 0.00 79 1015.1
20260505064830 12 135 0.0 1.6 0.00 0.00 0.00 80 1015.0
20260505064327 12 106 0.0 1.6 0.00 0.00 0.00 82 1014.9
20260505063825 12 105 0.0 1.6 0.00 0.00 0.00 83 1014.9
20260505063321 12 105 0.0 0.0 0.00 0.00 0.00 82 1015.1
20260505062817 12 105 0.0 0.0 0.00 0.00 0.00 82 1014.8
20260505062315 12 104 0.0 0.0 0.00 0.00 0.00 81 1014.9
20260505061812 12 104 0.0 0.0 0.00 0.00 0.00 81 1014.9
20260505061310 12 105 0.0 0.0 0.00 0.00 0.00 81 1014.8
20260505060807 12 105 0.0 0.0 0.00 0.00 0.00 81 1014.9
20260505060304 12 105 0.0 0.0 0.00 0.00 0.00 80 1014.8
20260505055759 12 114 0.0 0.0 0.00 0.00 0.00 79 1014.7
20260505055256 12 114 0.0 0.0 0.00 0.00 0.00 78 1014.7
20260505054753 13 114 0.0 0.0 0.00 0.00 0.00 76 1015.0
20260505054251 13 114 0.0 0.0 0.00 0.00 0.00 75 1014.8
20260505053749 13 114 0.0 0.0 0.00 0.00 0.00 74 1015.0
20260505053245 14 102 0.0 0.0 0.00 0.00 0.00 73 1014.9
20260505052743 14 102 0.0 0.0 0.00 0.00 0.00 72 1014.8
20260505052239 14 93 0.0 0.0 0.00 0.00 0.00 73 1014.7
20260505051736 13 124 3.2 3.2 0.00 0.00 0.00 74 1014.8
20260505051234 13 160 0.0 0.0 0.00 0.00 0.00 76 1014.5
20260505050732 13 160 0.0 0.0 0.00 0.00 0.00 76 1014.7
20260505050230 13 160 0.0 0.0 0.00 0.00 0.00 76 1014.8
20260505041700 14 160 0.0 1.6 0.00 0.00 0.00 75 1014.7
20260505041157 14 160 0.0 1.6 0.00 0.00 0.00 74 1014.5
20260505040654 14 159 1.6 1.6 0.00 0.00 0.00 74 1014.7
20260505040151 14 159 0.0 0.0 0.00 0.00 0.00 73 1014.4
20260505035648 14 159 0.0 0.0 0.00 0.00 0.00 73 1014.5
20260505035144 14 159 0.0 1.6 0.00 0.00 0.00 73 1014.7
20260505034641 15 159 0.0 0.0 0.00 0.00 0.00 71 1014.7
20260505034138 15 159 0.0 1.6 0.00 0.00 0.00 70 1014.8
20260505033634 15 159 0.0 0.0 0.00 0.00 0.00 69 1014.5
20260505033133 15 159 0.0 1.6 0.00 0.00 0.00 68 1014.7
20260505032630 15 159 1.6 1.6 0.00 0.00 0.00 68 1014.7
20260505032126 15 158 0.0 1.6 0.00 0.00 0.00 69 1014.8
20260505031624 15 158 0.0 0.0 0.00 0.00 0.00 70 1014.9
20260505031120 15 158 0.0 0.0 0.00 0.00 0.00 68 1014.7
20260505030617 15 158 0.0 0.0 0.00 0.00 0.00 68 1014.8
20260505030113 16 158 0.0 0.0 0.00 0.00 0.00 67 1014.9
20260505025608 16 158 0.0 1.6 0.00 0.00 0.00 67 1015.0
20260505025108 16 158 0.0 0.0 0.00 0.00 0.00 67 1014.9
20260505024604 16 158 0.0 1.6 0.00 0.00 0.00 67 1014.8
20260505024102 16 157 1.6 1.6 0.00 0.00 0.00 68 1015.2
20260505023559 16 148 0.0 0.0 0.00 0.00 0.00 68 1014.8
20260505023057 16 148 0.0 1.6 0.00 0.00 0.00 68 1014.7
20260505022554 16 148 0.0 0.0 0.00 0.00 0.00 67 1014.9
20260505022051 16 148 0.0 0.0 0.00 0.00 0.00 67 1015.0
20260505021547 16 148 0.0 1.6 0.00 0.00 0.00 66 1014.9
20260505021044 17 148 0.0 1.6 0.00 0.00 0.00 65 1014.9
20260505020544 17 148 0.0 1.6 0.00 0.00 0.00 63 1014.7
20260505020041 17 148 0.0 1.6 0.00 0.00 0.00 62 1014.7
20260505015538 17 119 1.6 1.6 0.00 0.00 0.00 61 1014.7
20260505015035 17 135 0.0 1.6 0.00 0.00 0.00 61 1014.7
20260505014532 17 113 0.0 1.6 0.00 0.00 0.00 60 1014.5
20260505014029 17 87 1.6 3.2 0.00 0.00 0.00 61 1014.5
20260505013526 17 118 0.0 3.2 0.00 0.00 0.00 62 1014.7
20260505013023 17 121 0.0 0.0 0.00 0.00 0.00 61 1014.7
20260505012522 18 121 0.0 1.6 0.00 0.00 0.00 59 1014.4
20260505012018 18 30 0.0 1.6 0.00 0.00 0.00 58 1014.4
20260505011513 18 139 1.6 3.2 0.00 0.00 0.00 59 1014.5
20260505011011 18 132 0.0 1.6 0.00 0.00 0.00 58 1014.2
20260505010506 18 131 0.0 0.0 0.00 0.00 0.00 56 1014.2
20260505010003 19 130 0.0 0.0 0.00 0.00 0.00 55 1014.1
20260505005459 19 127 1.6 1.6 0.00 0.00 0.00 54 1013.9
20260505004957 19 121 0.0 3.2 0.00 0.00 0.00 54 1014.1
20260505004454 20 131 0.0 0.0 0.00 0.00 0.00 52 1013.9
20260505003951 20 130 0.0 1.6 0.00 0.00 0.00 50 1014.0
20260505003448 20 132 0.0 1.6 0.00 0.00 0.00 49 1014.1
20260505002944 21 133 0.0 3.2 0.00 0.00 0.00 48 1014.0
20260505002440 21 113 0.0 3.2 0.00 0.00 0.00 48 1013.9
20260505001939 21 153 0.0 0.0 0.00 0.00 0.00 48 1013.9
20260505001436 21 189 3.2 4.8 0.00 0.00 0.00 45 1013.9
20260505000933 21 132 0.0 1.6 0.00 0.00 0.00 47 1013.9
20260505000431 21 122 0.0 3.2 0.00 0.00 0.00 48 1013.9
20260504235927 21 143 1.6 6.4 0.00 0.00 0.00 46 1014.0
20260504235425 21 158 1.6 1.6 0.00 0.00 0.00 48 1013.9
20260504234921 22 127 0.0 3.2 0.00 0.00 0.00 49 1013.9
20260504234419 22 92 3.2 3.2 0.00 0.00 0.00 47 1013.9
20260504233915 22 69 1.6 3.2 0.00 0.00 0.00 47 1013.6
20260504233411 22 134 0.0 0.0 0.00 0.00 0.00 48 1013.6
20260504232908 23 135 0.0 1.6 0.00 0.00 0.00 46 1013.8
20260504232404 23 158 1.6 3.2 0.00 0.00 0.00 42 1013.7
20260504231901 23 55 1.6 3.2 0.00 0.00 0.00 44 1013.6
20260504231358 23 153 3.2 3.2 0.00 0.00 0.00 43 1013.7
20260504230854 23 149 1.6 6.4 0.00 0.00 0.00 43 1013.9
20260504230352 23 145 0.0 1.6 0.00 0.00 0.00 41 1013.6
20260504225850 23 136 0.0 1.6 0.00 0.00 0.00 42 1013.6
20260504225346 23 83 1.6 3.2 0.00 0.00 0.00 41 1013.8
20260504224844 23 102 1.6 3.2 0.00 0.00 0.00 40 1013.6
20260504224341 23 131 1.6 6.4 0.00 0.00 0.00 39 1013.8
20260504223837 23 136 1.6 4.8 0.00 0.00 0.00 39 1013.8
20260504223333 23 127 0.0 1.6 0.00 0.00 0.00 37 1013.8
20260504222829 23 170 1.6 3.2 0.00 0.00 0.00 37 1013.9
20260504222327 24 233 4.8 6.4 0.00 0.00 0.00 35 1013.9
20260504221825 24 148 0.0 14.5 0.00 0.00 0.00 33 1013.7
20260504221321 25 143 1.6 9.7 0.00 0.00 0.00 34 1013.7
20260504220818 25 155 1.6 12.9 0.00 0.00 0.00 32 1013.9
20260504220315 25 204 4.8 14.5 0.00 0.00 0.00 32 1013.6
20260504215813 26 136 3.2 6.4 0.00 0.00 0.00 31 1013.8
20260504215309 25 208 3.2 4.8 0.00 0.00 0.00 34 1013.9
20260504214805 25 131 0.0 4.8 0.00 0.00 0.00 32 1013.8
20260504214302 25 29 6.4 9.7 0.00 0.00 0.00 37 1013.7
20260504213758 25 239 3.2 12.9 0.00 0.00 0.00 36 1014.1
20260504213254 25 256 4.8 6.4 0.00 0.00 0.00 37 1013.8
20260504212752 26 172 1.6 14.5 0.00 0.00 0.00 37 1014.1
20260504212248 25 211 6.4 20.9 0.00 0.00 0.00 36 1014.1
20260504211745 25 228 9.7 12.9 0.00 0.00 0.00 37 1014.1
20260504211241 25 208 4.8 6.4 0.00 0.00 0.00 37 1014.0
20260504210739 25 146 1.6 12.9 0.00 0.00 0.00 37 1014.2
20260504210236 26 216 8.0 9.7 0.00 0.00 0.00 37 1014.3
20260504205733 26 147 3.2 9.7 0.00 0.00 0.00 38 1014.1
20260504205231 26 212 1.6 9.7 0.00 0.00 0.00 37 1014.2
20260504204729 26 208 4.8 4.8 0.00 0.00 0.00 40 1014.2
20260504204227 25 142 3.2 12.9 0.00 0.00 0.00 38 1014.7
20260504203726 25 211 1.6 9.7 0.00 0.00 0.00 39 1014.5
20260504203223 25 245 3.2 6.4 0.00 0.00 0.00 38 1014.5
20260504202723 25 220 8.0 12.9 0.00 0.00 0.00 37 1014.4
20260504202221 25 136 1.6 1.6 0.00 0.00 0.00 41 1014.8
20260504201718 25 95 1.6 4.8 0.00 0.00 0.00 41 1014.8
20260504201215 25 154 1.6 3.2 0.00 0.00 0.00 40 1014.7
20260504200712 25 66 1.6 4.8 0.00 0.00 0.00 43 1014.8
20260504200208 25 130 1.6 11.3 0.00 0.00 0.00 42 1014.9
20260504195705 25 259 8.0 12.9 0.00 0.00 0.00 39 1015.1
20260504195201 25 341 1.6 6.4 0.00 0.00 0.00 41 1015.1
20260504194658 25 249 3.2 9.7 0.00 0.00 0.00 41 1015.1
20260504194153 25 147 1.6 17.7 0.00 0.00 0.00 44 1015.1
20260504193650 25 211 3.2 4.8 0.00 0.00 0.00 42 1015.1
20260504193148 25 172 3.2 12.9 0.00 0.00 0.00 40 1015.2
20260504192646 25 137 1.6 6.4 0.00 0.00 0.00 46 1015.6
20260504192144 25 178 3.2 4.8 0.00 0.00 0.00 40 1015.5
20260504191642 24 194 1.6 9.7 0.00 0.00 0.00 41 1015.8
20260504191138 24 227 6.4 12.9 0.00 0.00 0.00 41 1015.8
20260504190634 24 25 4.8 6.4 0.00 0.00 0.00 42 1015.7
20260504190131 24 197 1.6 12.9 0.00 0.00 0.00 42 1015.8
20260504185627 24 194 4.8 4.8 0.00 0.00 0.00 40 1015.7
20260504185124 23 149 1.6 6.4 0.00 0.00 0.00 43 1015.9
20260504184620 24 219 3.2 6.4 0.00 0.00 0.00 40 1016.0
20260504184115 23 137 3.2 11.3 0.00 0.00 0.00 41 1016.1
20260504183613 24 225 9.7 12.9 0.00 0.00 0.00 39 1016.0
20260504183110 24 100 4.8 12.9 0.00 0.00 0.00 41 1016.3
20260504182607 23 184 4.8 11.3 0.00 0.00 0.00 41 1016.4
20260504182105 23 65 0.0 4.8 0.00 0.00 0.00 43 1016.4
20260504181602 23 175 4.8 9.7 0.00 0.00 0.00 41 1016.4
20260504181059 23 166 3.2 9.7 0.00 0.00 0.00 41 1016.5
20260504180558 23 171 3.2 6.4 0.00 0.00 0.00 40 1016.4
20260504180057 23 112 1.6 3.2 0.00 0.00 0.00 42 1016.4
20260504175554 23 118 3.2 4.8 0.00 0.00 0.00 42 1016.7
20260504175050 23 147 3.2 6.4 0.00 0.00 0.00 42 1016.5
20260504174549 23 208 4.8 9.7 0.00 0.00 0.00 42 1016.7
20260504174045 23 148 3.2 3.2 0.00 0.00 0.00 43 1016.7
20260504173542 23 246 6.4 9.7 0.00 0.00 0.00 42 1016.8
20260504173039 22 217 4.8 6.4 0.00 0.00 0.00 42 1016.7
20260504172535 22 178 6.4 9.7 0.00 0.00 0.00 42 1016.8
20260504172032 22 210 8.0 14.5 0.00 0.00 0.00 40 1016.9
20260504171529 22 119 1.6 1.6 0.00 0.00 0.00 42 1016.9
20260504171026 22 93 6.4 14.5 0.00 0.00 0.00 41 1017.1
20260504170522 22 193 3.2 6.4 0.00 0.00 0.00 43 1017.2
20260504160442 21 233 1.6 3.2 0.00 0.00 0.00 44 1018.1
20260504150906 18 115 0.0 3.2 0.00 0.00 0.00 50 1018.8
20260504150402 18 105 1.6 6.4 0.00 0.00 0.00 52 1019.0
20260504141332 16 229 1.6 1.6 0.00 0.00 0.00 57 1019.5
20260504140829 16 111 0.0 3.2 0.00 0.00 0.00 61 1019.6
20260504140324 16 151 1.6 3.2 0.00 0.00 0.00 56 1019.5
20260504130753 13 145 0.0 1.6 0.00 0.00 0.00 68 1019.8
20260504130249 12 88 0.0 1.6 0.00 0.00 0.00 69 1019.7